EW2516 Weather Reports


Display with metric or nautical units.
time (UTC)temp
F
wind
direction
speed
MPH
gust
MPH
rain 1hr
in
rain 24hr
in
rain mn
in
humidity
%
barometer
mb
20260906230518 57 135 1.0 5.0 0.00 0.09 0.01 95 1022.1
20260906225538 56 135 3.0 8.0 0.00 0.09 0.01 95 1022.0
20260906224517 56 113 4.0 7.0 0.00 0.09 0.01 95 1022.1
20260906223518 56 113 3.0 7.0 0.00 0.09 0.01 96 1022.1
20260906222517 56 113 4.0 9.0 0.00 0.09 0.01 96 1022.1
20260906221518 55 90 4.0 9.0 0.00 0.09 0.01 96 1022.0
20260906220538 55 113 2.0 7.0 0.00 0.09 0.01 97 1022.1
20260906215538 55 113 3.0 8.0 0.00 0.09 0.01 97 1022.2
20260906214517 55 68 2.0 5.0 0.00 0.09 0.01 97 1022.3
20260906213517 55 113 3.0 7.0 0.00 0.09 0.01 97 1022.3
20260906212559 55 113 2.0 7.0 0.00 0.09 0.01 97 1022.4
20260906211517 54 113 3.0 7.0 0.00 0.10 0.01 97 1022.2
20260906210517 54 135 1.0 5.0 0.00 0.10 0.01 97 1022.3
20260906205539 54 135 3.0 6.0 0.00 0.10 0.01 97 1022.4
20260906204517 54 113 2.0 6.0 0.00 0.10 0.01 97 1022.4
20260906203517 53 90 3.0 7.0 0.00 0.10 0.01 97 1022.4
20260906202538 53 113 4.0 8.0 0.00 0.10 0.01 97 1022.7
20260906201517 53 113 4.0 7.0 0.00 0.10 0.01 97 1022.5
20260906200517 53 90 5.0 9.0 0.00 0.10 0.01 97 1022.8
20260906195517 53 113 3.0 7.0 0.00 0.10 0.01 97 1022.8
20260906194518 53 90 4.0 7.0 0.00 0.10 0.01 97 1022.8
20260906193518 52 90 3.0 7.0 0.00 0.10 0.01 97 1022.8
20260906192538 52 90 4.0 8.0 0.00 0.10 0.01 97 1022.9
20260906191517 52 90 5.0 8.0 0.00 0.10 0.01 97 1022.9
20260906190518 52 90 5.0 8.0 0.00 0.10 0.01 97 1023.0
20260906185518 51 113 3.0 7.0 0.00 0.10 0.01 97 1022.9
20260906184517 51 90 4.0 8.0 0.00 0.10 0.01 97 1023.1
20260906183518 51 90 5.0 8.0 0.00 0.10 0.01 97 1023.0
20260906182518 51 68 3.0 6.0 0.00 0.10 0.01 97 1023.1
20260906181518 51 90 4.0 7.0 0.00 0.10 0.01 97 1022.9
20260906180518 50 90 4.0 8.0 0.00 0.10 0.01 97 1023.1
20260906175517 50 90 2.0 5.0 0.00 0.10 0.01 97 1023.1
20260906174518 50 90 1.0 3.0 0.00 0.10 0.01 97 1023.3
20260906173517 50 135 2.0 5.0 0.01 0.10 0.01 97 1023.4
20260906172518 50 113 1.0 4.0 0.01 0.10 0.01 97 1023.3
20260906171518 50 90 2.0 5.0 0.01 0.10 0.01 97 1023.2
20260906170518 50 90 2.0 7.0 0.01 0.10 0.01 97 1023.3
20260906165518 50 113 2.0 5.0 0.01 0.10 0.01 97 1023.6
20260906164518 50 90 2.0 5.0 0.01 0.10 0.01 97 1023.7
20260906163517 50 113 2.0 5.0 0.00 0.09 0.00 97 1023.8
20260906162517 49 90 2.0 5.0 0.00 0.09 0.00 97 1023.8
20260906161518 50 90 2.0 6.0 0.00 0.09 0.00 97 1023.9
20260906160538 50 90 2.0 5.0 0.00 0.09 0.00 97 1023.8
20260906155517 50 90 2.0 6.0 0.00 0.09 0.00 97 1023.9
20260906154538 49 0.0 3.0 0.00 0.09 0.00 97 1023.8
20260906153518 49 90 1.0 3.0 0.00 0.09 0.00 97 1023.7
20260906152517 49 0.0 0.0 0.00 0.09 0.00 97 1023.8
20260906151517 49 0.0 0.0 0.00 0.09 0.00 97 1023.7
20260906150537 49 0.0 0.0 0.00 0.09 0.00 97 1023.9
20260906145517 49 0.0 0.0 0.00 0.09 0.00 97 1023.6
20260906144517 49 0.0 0.0 0.00 0.09 0.00 97 1023.4
20260906143518 48 0.0 0.0 0.00 0.09 0.00 97 1023.4
20260906142517 48 0.0 0.0 0.00 0.09 0.00 97 1023.6
20260906141518 48 0.0 0.0 0.00 0.09 0.00 97 1023.5
20260906140517 48 0.0 0.0 0.00 0.09 0.00 97 1024.1
20260906135517 49 180 1.0 2.0 0.00 0.09 0.00 97 1024.0
20260906134517 49 0.0 2.0 0.00 0.09 0.00 97 1024.1
20260906133517 49 180 1.0 3.0 0.00 0.09 0.00 97 1024.2
20260906132517 49 0.0 0.0 0.00 0.09 0.00 97 1024.0
20260906131517 49 0.0 3.0 0.00 0.09 0.00 97 1023.7
20260906130517 49 180 1.0 3.0 0.00 0.09 0.00 97 1023.9
20260906125517 49 0.0 2.0 0.00 0.09 0.00 97 1024.1
20260906124517 49 0.0 2.0 0.00 0.09 0.00 97 1024.1
20260906123517 49 203 1.0 3.0 0.00 0.09 0.00 97 1024.4
20260906122518 49 203 1.0 4.0 0.00 0.09 0.00 97 1024.6
20260906121518 49 203 1.0 4.0 0.00 0.09 0.00 97 1024.9
20260906120517 49 180 3.0 7.0 0.00 0.09 0.00 97 1025.3
20260906115516 49 180 1.0 5.0 0.00 0.09 0.00 97 1025.4
20260906114517 49 180 1.0 3.0 0.00 0.09 0.00 97 1025.4
20260906113517 49 0.0 2.0 0.00 0.09 0.00 97 1025.3
20260906112516 49 203 1.0 3.0 0.00 0.09 0.00 96 1025.6
20260906111518 49 248 3.0 12.0 0.00 0.09 0.00 97 1025.6
20260906110517 49 0.0 3.0 0.00 0.09 0.00 97 1025.6
20260906105516 49 180 1.0 3.0 0.00 0.09 0.00 97 1025.4
20260906104517 49 0.0 2.0 0.00 0.09 0.00 96 1025.4
20260906103516 49 0.0 1.0 0.00 0.09 0.00 96 1024.6
20260906102517 48 0.0 0.0 0.00 0.09 0.00 97 1025.0
20260906101516 48 0.0 1.0 0.00 0.09 0.00 96 1024.8
20260906100517 48 0.0 0.0 0.00 0.09 0.00 96 1024.9
20260906095538 49 135 1.0 3.0 0.00 0.09 0.00 96 1025.5
20260906094517 49 0.0 1.0 0.00 0.09 0.00 96 1025.9
20260906093516 49 0.0 2.0 0.00 0.09 0.00 96 1025.9
20260906092517 49 113 1.0 4.0 0.00 0.09 0.00 96 1026.0
20260906091516 49 113 1.0 3.0 0.00 0.09 0.00 96 1026.1
20260906090517 49 0.0 2.0 0.00 0.09 0.00 96 1026.0
20260906085518 49 113 1.0 10.0 0.00 0.09 0.00 96 1026.2
20260906084537 49 0.0 3.0 0.00 0.09 0.00 96 1026.2
20260906083517 49 0.0 2.0 0.00 0.09 0.00 96 1026.5
20260906082517 49 0.0 0.0 0.00 0.09 0.00 96 1026.2
20260906081518 49 0.0 0.0 0.00 0.09 0.00 96 1026.1
20260906080517 49 0.0 0.0 0.00 0.09 0.00 96 1026.3
20260906075517 49 0.0 0.0 0.00 0.09 0.00 96 1026.3
20260906074516 49 0.0 2.0 0.00 0.09 0.00 96 1026.3
20260906073536 49 0.0 1.0 0.00 0.09 0.00 96 1026.3
20260906072537 49 270 1.0 4.0 0.00 0.09 0.00 96 1026.5
20260906071516 49 248 3.0 4.0 0.00 0.09 0.00 96 1026.5
20260906070517 49 248 2.0 4.0 0.00 0.09 0.00 96 1026.6
20260906065517 49 293 2.0 4.0 0.00 0.09 0.00 96 1026.3
20260906064517 49 293 1.0 3.0 0.00 0.09 0.00 96 1026.3
20260906063517 49 0.0 2.0 0.00 0.09 0.00 96 1026.5
20260906062517 49 293 1.0 2.0 0.00 0.09 0.00 96 1026.5
20260906061516 49 0.0 1.0 0.00 0.09 0.00 96 1026.5
20260906060517 49 0.0 2.0 0.00 0.09 0.00 96 1026.6
20260906055516 49 293 1.0 3.0 0.01 0.09 0.09 96 1026.6
20260906054537 49 293 1.0 3.0 0.02 0.09 0.09 96 1026.6
20260906053515 49 270 1.0 5.0 0.02 0.09 0.09 96 1026.7
20260906052537 49 315 2.0 4.0 0.02 0.09 0.09 96 1026.8
20260906051517 49 315 1.0 3.0 0.02 0.09 0.09 96 1026.6
20260906050516 49 315 1.0 4.0 0.02 0.09 0.09 96 1026.8
20260906045516 49 315 1.0 3.0 0.01 0.09 0.09 96 1026.9
20260906044537 49 315 1.0 3.0 0.01 0.08 0.08 96 1026.8
20260906043516 49 315 1.0 4.0 0.01 0.08 0.08 96 1026.5
20260906042516 49 315 1.0 3.0 0.01 0.08 0.08 96 1026.4
20260906041617 49 315 1.0 3.0 0.01 0.08 0.08 96 1026.3
20260906040516 49 315 1.0 2.0 0.01 0.08 0.08 96 1026.3
20260906035516 49 0.0 1.0 0.02 0.08 0.08 96 1026.1
20260906034517 49 0.0 3.0 0.01 0.07 0.07 96 1026.0
20260906033515 49 0.0 2.0 0.02 0.07 0.07 95 1026.0
20260906032516 49 293 1.0 4.0 0.02 0.07 0.07 95 1025.9
20260906031516 49 293 1.0 3.0 0.02 0.07 0.07 95 1026.0
20260906030515 49 315 1.0 4.0 0.02 0.07 0.07 95 1026.1
20260906025516 49 315 1.0 2.0 0.01 0.06 0.06 95 1026.0
20260906024516 49 0.0 2.0 0.02 0.06 0.06 95 1025.9
20260906023517 50 315 1.0 2.0 0.01 0.06 0.06 95 1025.9
20260906022516 49 0.0 2.0 0.02 0.06 0.06 95 1025.8
20260906021536 50 315 1.0 3.0 0.02 0.06 0.06 95 1025.7
20260906020517 50 0.0 4.0 0.03 0.06 0.06 95 1025.9
20260906015516 50 0.0 2.0 0.04 0.06 0.06 95 1025.8
20260906014516 50 0.0 2.0 0.03 0.05 0.05 95 1025.8
20260906013516 50 0.0 3.0 0.03 0.05 0.05 95 1025.8
20260906012518 50 0.0 0.0 0.03 0.04 0.04 95 1025.7
20260906011518 50 338 1.0 3.0 0.03 0.04 0.04 94 1025.6
20260906010519 50 0.0 1.0 0.02 0.02 0.02 94 1025.5
20260906005518 50 0.0 3.0 0.01 0.02 0.02 94 1025.5
20260906004518 50 0.0 1.0 0.01 0.02 0.02 94 1025.4
20260906003518 50 0.0 2.0 0.01 0.02 0.02 94 1025.4
20260906002539 50 338 1.0 5.0 0.00 0.01 0.01 94 1025.4
20260906001535 50 338 1.0 5.0 0.00 0.01 0.01 93 1025.4
20260906000521 50 338 1.0 5.0 0.00 0.01 0.01 94 1025.4
20260905235517 49 0 1.0 4.0 0.00 0.01 0.01 93 1025.4
20260905234517 49 0.0 4.0 0.00 0.01 0.01 93 1025.4
20260905233517 49 315 2.0 5.0 0.00 0.01 0.01 93 1025.4
20260905232517 49 338 2.0 6.0 0.00 0.01 0.01 93 1025.3
20260905231539 50 338 3.0 8.0 0.00 0.01 0.01 93 1025.2